Other Public Products
Issued by NWS Charleston, SC

Current Version | Previous Version | Text Only | Print | Product List | Glossary Off
Versions: 1 2 3 4 5 6 7 8 9 10 11 12 13 14 15 16 17 18 19 20 21 22 23 24 25 26 27 28 29 30 31 32 33 34 35 36 37 38 39 40 41 42 43 44 45 46 47 48 49 50

540
FPUS82 KCHS 120626
OPUCHS

TEST...KCHS/KSAV Gateway Observations...TEST
National Weather Service Charleston SC
100 AM EST TUE DEC 12 2017

NOTE: "fair" indicates few or no clouds below 12,000 feet with no
significant weather and/or obstructions to visibility.

SCZ050-WAZ558-NCZ071-TXZ119-213-PAZ071-DCZ001-FLZ074-172-MI076-
NYZ176-178-MAZ016-IL014-TNZ027-NJZ106-GAZ044-MD014-120700-

...Gateway Observations for Charleston International...

CITY           SKY/WX    TMP DP  RH WIND       PRES   REMARKS
Chas Airport   CLEAR     45  39  79 SW9       29.98F
6HR MIN TEMP:  40; 6HR MAX TEMP:  47;

Seattle        PTCLDY    40  26  57 SE7       30.41R WCI  35
6HR MIN TEMP:  37; 6HR MAX TEMP:  44;

Charlotte      CLEAR     42  35  76 SW5       29.86F
6HR MIN TEMP:  39; 6HR MAX TEMP:  47;

Dallas DFW     PTCLDY    50  24  36 N10       30.21R
6HR MIN TEMP:  50; 6HR MAX TEMP:  72;

Dallas Love    PTCLDY    54  25  32 N6        30.22R
6HR MIN TEMP:  52; 6HR MAX TEMP:  69;

Philladelphia  CLOUDY    36  27  69 E3        29.87F
6HR MIN TEMP:  35; 6HR MAX TEMP:  38;

Wash National  MOCLDY    41  33  73 S8        29.83F
6HR MIN TEMP:  41; 6HR MAX TEMP:  43;

Baltimore      CLOUDY    41  31  67 VRB5      29.81F
6HR MIN TEMP:  38; 6HR MAX TEMP:  41;

Miami          CLEAR     55  42  61 CALM      30.14F
6HR MIN TEMP:  55; 6HR MAX TEMP:  61;

Detroit        LGT SNOW  31  28  89 W7        29.64F FOG     WCI  24
6HR MIN TEMP:  31; 6HR MAX TEMP:  31; 6HR PCP:  0.14;

Newark         CLOUDY    39  25  57 SE3       29.91F
6HR MIN TEMP:  36; 6HR MAX TEMP:  39;

Laguardia      CLOUDY    41  26  55 S9        29.91F
6HR MIN TEMP:  39; 6HR MAX TEMP:  41;

J F K          NOT AVBL
Boston Logan   CLOUDY    35  23  61 E6        29.99F WCI  30
6HR MIN TEMP:  32; 6HR MAX TEMP:  36;

Ft. Lauderdale CLEAR     52  45  77 CALM      30.13F
6HR MIN TEMP:  52; 6HR MAX TEMP:  58;

Chicago O`Hare CLOUDY    31  20  63 NW20G29   29.90R WCI  19
6HR MIN TEMP:  31; 6HR MAX TEMP:  33; 6HR PCP:  0.01;

Chicago Midway FLURRIES  32  24  72 NW17      29.90R WCI  21
6HR MIN TEMP:  32; 6HR MAX TEMP:  34; 6HR PCP:  0.03;

Houston Bush   MOCLDY    56  43  61 W7        30.18S
6HR MIN TEMP:  55; 6HR MAX TEMP:  65;

Houston Hobby  MOCLDY    52  44  74 SW8       30.18S
6HR MIN TEMP:  51; 6HR MAX TEMP:  61;

Nashville      PTCLDY    49  26  41 NW6       29.91S
6HR MIN TEMP:  49; 6HR MAX TEMP:  56;

Atlanta        PTCLDY    48  37  65 SW9       29.93F
6HR MIN TEMP:  47; 6HR MAX TEMP:  52;


$$

GAZ044-118-TXZ119-213-NCZ071-DCZ001-MDZ014-506-PAZ021-071-NJZ106-
NYZ176-178-MAZ106-OHZ011-021-055-MIZ076-KYZ091-ILZ014-INZ047-
MNZ060-ONZ431-120700-

...Gateway Observations for Savannah International...

CITY           SKY/WX    TMP DP  RH WIND       PRES   REMARKS
Savannah Arpt  CLEAR     47  37  68 SW9       30.03F
6HR MIN TEMP:  44; 6HR MAX TEMP:  49;

Atlanta        PTCLDY    48  37  65 SW9       29.93F
6HR MIN TEMP:  47; 6HR MAX TEMP:  52;

Charlotte      CLEAR     42  35  76 SW5       29.86F
6HR MIN TEMP:  39; 6HR MAX TEMP:  47;

Dallas DFW     PTCLDY    50  24  36 N10       30.21R
6HR MIN TEMP:  50; 6HR MAX TEMP:  72;

Houston Bush   MOCLDY    56  43  61 W7        30.18S
6HR MIN TEMP:  55; 6HR MAX TEMP:  65;

Wash National  MOCLDY    41  33  73 S8        29.83F
6HR MIN TEMP:  41; 6HR MAX TEMP:  43;

Wash Dulles    CLOUDY    40  31  70 S7        29.79F WCI  35
6HR MIN TEMP:  39; 6HR MAX TEMP:  41;

Baltimore      CLOUDY    41  31  67 VRB5      29.81F
6HR MIN TEMP:  38; 6HR MAX TEMP:  41;

Philadelphia   CLOUDY    36  27  69 E3        29.87F
6HR MIN TEMP:  35; 6HR MAX TEMP:  38;

Newark         CLOUDY    39  25  57 SE3       29.91F
6HR MIN TEMP:  36; 6HR MAX TEMP:  39;

Laguardia      CLOUDY    41  26  55 S9        29.91F
6HR MIN TEMP:  39; 6HR MAX TEMP:  41;

J F K          NOT AVBL
Boston         CLOUDY    35  23  61 E6        29.99F WCI  30
6HR MIN TEMP:  32; 6HR MAX TEMP:  36;

Pittsburg      CLOUDY    36  22  56 S7        29.59F WCI  30
6HR MIN TEMP:  34; 6HR MAX TEMP:  37;

Akron          CLOUDY    35  23  61 S7        29.57F WCI  29
6HR MIN TEMP:  31; 6HR MAX TEMP:  35;

Cleveland      LGT SNOW  34  29  82 NE8       29.61F WCI  27
6HR MIN TEMP:  32; 6HR MAX TEMP:  35; 6HR PCP: TRACE;

Cincinnati     MOCLDY    40  29  64 W24G30    29.75R WCI  29
6HR MIN TEMP:  39; 6HR MAX TEMP:  47;

Columbus       CLOUDY    38  28  69 W16       29.66R WCI  28
Detroit        LGT SNOW  31  28  89 W7        29.64F FOG     WCI  24
6HR MIN TEMP:  31; 6HR MAX TEMP:  31; 6HR PCP:  0.14;

Chicago O`Hare CLOUDY    31  20  63 NW20G29   29.90R WCI  19
6HR MIN TEMP:  31; 6HR MAX TEMP:  33; 6HR PCP:  0.01;

Minneapolis    CLEAR     16  10  77 NW14G24   30.23R WCI   2
6HR MIN TEMP:  16; 6HR MAX TEMP:  27;

Indianapolis   CLOUDY    35  29  78 NW16      29.84R WCI  25
6HR MIN TEMP:  35; 6HR MAX TEMP:  45;

Toronto Canada LGT SNOW  27  25  93 NE6       29.64  VSB 1   WCI  20

$$




USA.gov is the U.S. government's official web portal to all federal, state and local government web resources and services.